sat.trackr.live / text

‹ back to catalog

STARLINK-4312

NORAD 53065 · 2022-077Y

PAYLOAD ACTIVE UNKNOWN

§ Identity

Operator
Country
US
Launch date
2022-07-11
Launch site
AFWTR
Launch vehicle
Mass (kg)
RCS (m²)

Purposes: comms

External: N2YO · Heavens-Above · Gunter

§ Orbital elements

Epoch: 2026-05-25T04:30:41.083200Z

Period
95.64 min
Inclination
97.4463°
Eccentricity
0.0001128
Mean motion
15.05609927 rev/d
Perigee alt
548.9 km
Apogee alt
550.4 km
Semi-major
6,927.8 km
B*
6.6762e-4
RAAN
325.1913°
Arg perigee
129.0361°
Mean anomaly
231.0967°
Rev number
21,242

§ Raw data

STARLINK-43121 53065U 22077Y   26145.18797550  .00009577  00000+0  66762-3 0  99942 53065  97.4463 325.1913 0001128 129.0361 231.0967 15.05609927212425

JSON: /api/v1/satellites/53065 · /tle

For live sub-satellite position, see the globe view (requires WebGL).

§ Visibility from observer

Set your observer location to see the next 7 days of passes ≥ 10°. The values pass through the URL so the page stays shareable.

No JS? Fill the form by hand. The geolocation button needs JavaScript.